Location: Brachbach
(49.1847°N, 9.7240°E)
Time: 14:01:11
(UTC+00:00)

Nimbus 7 Rocket - Pass Details

Date: 13 August 2024
Orbit: 921 x 965 km, 99.4° (Epoch: 14 September)

Event Time Altitude Azimuth Distance (km) Brightness Sun altitude
Rises 23:14:43 0° 23° (NNE) 3,590 8.5 -26.5°
Reaches altitude 10° 23:17:30 10° 34° (NE) 2,637 7.4 -26.5°
Maximum altitude 23:22:36 30° 94° (E) 1,600 5.5 -26.5°
Enters shadow 23:23:08 29° 104° (ESE) 1,614 5.5 -26.5°
